TimeMST,TemperatureF,Dew PointF,Humidity,Sea Level PressureIn,VisibilityMPH,Wind Direction,Wind SpeedMPH,Gust SpeedMPH,PrecipitationIn,Events,Conditions,WindDirDegrees,DateUTC
12:53 AM,21.0,18.0,88,29.79,10.0,Calm,Calm,-,N/A,,Clear,0,2013-01-27 07:53:00
1:53 AM,21.0,19.0,92,29.78,10.0,East,3.5,-,N/A,,Clear,100,2013-01-27 08:53:00
2:53 AM,17.1,14.0,88,29.78,10.0,NW,4.6,-,N/A,,Clear,320,2013-01-27 09:53:00
3:53 AM,16.0,12.9,88,29.79,10.0,NW,4.6,-,N/A,,Overcast,310,2013-01-27 10:53:00
4:53 AM,17.1,14.0,88,29.79,10.0,SSE,5.8,-,N/A,,Overcast,150,2013-01-27 11:53:00
5:53 AM,18.0,15.1,88,29.81,10.0,Calm,Calm,-,N/A,,Clear,0,2013-01-27 12:53:00
6:53 AM,19.0,17.1,92,29.83,10.0,Calm,Calm,-,N/A,,Overcast,0,2013-01-27 13:53:00
7:53 AM,18.0,16.0,92,29.85,10.0,South,3.5,-,N/A,,Scattered Clouds,170,2013-01-27 14:53:00
8:53 AM,19.9,19.0,96,29.86,10.0,Calm,Calm,-,N/A,,Overcast,0,2013-01-27 15:53:00
9:53 AM,24.1,21.0,88,29.86,10.0,SSE,3.5,-,N/A,,Mostly Cloudy,150,2013-01-27 16:53:00
10:53 AM,30.0,24.1,79,29.84,10.0,Calm,Calm,-,N/A,,Scattered Clouds,0,2013-01-27 17:53:00
11:53 AM,34.0,26.1,73,29.82,10.0,SE,3.5,-,N/A,,Mostly Cloudy,130,2013-01-27 18:53:00
12:18 PM,35.6,26.6,70,29.71,10.0,Calm,Calm,-,N/A,,Mostly Cloudy,0,2013-01-27 19:18:00
12:53 PM,36.0,28.0,73,29.79,10.0,Calm,Calm,-,N/A,,Overcast,0,2013-01-27 19:53:00
1:02 PM,37.4,28.4,70,29.69,10.0,Calm,Calm,-,N/A,,Mostly Cloudy,0,2013-01-27 20:02:00
1:53 PM,37.0,28.9,73,29.78,10.0,NNW,6.9,-,N/A,,Overcast,330,2013-01-27 20:53:00
2:15 PM,37.4,28.4,70,29.68,10.0,NW,11.5,-,N/A,,Overcast,320,2013-01-27 21:15:00
2:53 PM,37.0,28.9,73,29.77,10.0,NNW,5.8,-,N/A,,Overcast,330,2013-01-27 21:53:00
3:53 PM,36.0,28.9,76,29.77,10.0,WNW,8.1,-,N/A,,Mostly Cloudy,300,2013-01-27 22:53:00
4:53 PM,34.0,28.9,82,29.76,10.0,NW,12.7,-,N/A,,Overcast,310,2013-01-27 23:53:00
5:09 PM,33.8,28.4,81,29.65,10.0,NW,13.8,-,N/A,,Overcast,310,2013-01-28 00:09:00
5:32 PM,33.8,28.4,81,29.66,10.0,NW,16.1,24.2,N/A,,Overcast,310,2013-01-28 00:32:00
5:50 PM,33.8,28.4,81,29.66,10.0,NW,13.8,-,N/A,,Overcast,320,2013-01-28 00:50:00
5:53 PM,33.1,28.0,82,29.77,10.0,NW,12.7,-,N/A,,Overcast,320,2013-01-28 00:53:00
6:21 PM,32.0,28.4,87,29.66,2.5,NW,19.6,-,0.00,Snow,Light Snow,310,2013-01-28 01:21:00
6:33 PM,32.0,28.4,87,29.67,1.2,NW,20.7,26.5,0.00,Snow,Light Snow,310,2013-01-28 01:33:00
6:47 PM,30.2,28.4,93,29.67,0.8,NW,19.6,27.6,0.00,Snow,Light Snow,320,2013-01-28 01:47:00
6:53 PM,30.9,28.9,92,29.79,0.8,NW,20.7,-,0.00,Snow,Light Snow,320,2013-01-28 01:53:00
7:11 PM,30.2,28.4,93,29.68,0.5,NW,19.6,27.6,0.00,Fog-Snow,Snow,310,2013-01-28 02:11:00
7:28 PM,30.2,28.4,93,29.69,0.8,WNW,20.7,-,0.00,Snow,Light Snow,300,2013-01-28 02:28:00
7:39 PM,30.2,28.4,93,29.70,1.0,NW,18.4,26.5,0.00,Snow,Light Snow,310,2013-01-28 02:39:00
7:46 PM,30.2,28.4,93,29.71,1.8,WNW,19.6,-,0.00,Snow,Light Snow,290,2013-01-28 02:46:00
7:53 PM,30.0,28.0,92,29.83,1.2,NW,21.9,31.1,0.00,Snow,Light Snow,310,2013-01-28 02:53:00
8:42 PM,28.4,26.6,93,29.70,3.0,NW,17.3,-,0.00,Snow,Light Snow,310,2013-01-28 03:42:00
8:53 PM,28.9,27.0,92,29.82,6.0,NW,16.1,-,0.00,Snow,Light Snow,310,2013-01-28 03:53:00
9:13 PM,28.4,26.6,93,29.69,10.0,WNW,15.0,-,0.00,,Overcast,300,2013-01-28 04:13:00
9:20 PM,28.4,26.6,93,29.70,10.0,NW,13.8,-,0.00,,Overcast,310,2013-01-28 04:20:00
9:29 PM,30.2,26.6,86,29.70,10.0,NNW,17.3,-,0.00,,Overcast,330,2013-01-28 04:29:00
9:51 PM,30.2,26.6,86,29.71,4.0,North,10.4,-,0.00,Snow,Light Snow,350,2013-01-28 04:51:00
9:53 PM,30.0,28.0,92,29.82,4.0,NNW,9.2,-,0.00,Snow,Light Snow,340,2013-01-28 04:53:00
10:05 PM,30.2,26.6,86,29.71,3.0,NNW,12.7,-,0.00,Snow,Light Snow,330,2013-01-28 05:05:00
10:13 PM,28.4,26.6,93,29.72,2.0,NW,12.7,-,0.00,Snow,Light Snow,320,2013-01-28 05:13:00
10:53 PM,28.9,27.0,92,29.82,2.0,NW,12.7,-,0.00,Snow,Light Snow,320,2013-01-28 05:53:00
11:00 PM,28.4,26.6,93,29.73,2.0,NW,11.5,-,0.00,Snow,Light Snow,310,2013-01-28 06:00:00
11:14 PM,28.4,26.6,93,29.73,1.0,NW,11.5,-,0.00,Snow,Light Snow,320,2013-01-28 06:14:00
11:19 PM,28.4,26.6,93,29.73,0.8,NW,12.7,-,0.01,Snow,Light Snow,320,2013-01-28 06:19:00
11:31 PM,28.4,26.6,93,29.74,1.0,NW,12.7,-,0.01,Snow,Light Snow,320,2013-01-28 06:31:00
11:53 PM,28.9,27.0,92,29.82,1.2,NW,11.5,-,0.01,Snow,Light Snow,310,2013-01-28 06:53:00